Location: Newark
(49.8969°N, 3.3422°E)
Time: 16:46:15
(UTC+00:00)

Tiros 1 - Pass Details

Date: 14 May 2021
Orbit: 630 x 664 km, 48.4° (Epoch: 11 June)

Event Time Altitude Azimuth Distance (km) Brightness Sun altitude
Exits shadow 01:29:08 31° 232° (SW) 1,144 7.9 -17.5°
Maximum altitude 01:31:14 60° 164° (SSE) 753 7.2 -17.4°
Drops below altitude 10° 01:35:55 10° 85° (E) 2,061 10.2 -17.0°
Sets 01:38:16 0° 82° (E) 2,968 11.1 -16.9°
